ボアッティーニ彗星

P/2008 T1 ( Boattini )

English version
Home page
Updated on March 17, 2010

---------------------------------------------------------------------

・ プロフィール

発見日 2008年10月1日
発見光度 18.0等
発見者 A. Boattini (Mt. Lemmon)

・ 写真集

・ 軌道要素

Epoch 2008 Feb. 24.0 TT = JDT 2454520.5
T 2008 Feb. 26.33103 TT                                 MPC
q   3.0427858            (2000.0)            P               Q
n   0.11312613     Peri.   35.85765     +0.84413086     +0.53507329
a   4.2340966      Node   291.75972     -0.49997780     +0.76290409
e   0.2813613      Incl.    2.08311     -0.19355956     +0.36286903
P   8.71

・ 光度変化

        m1 = 6.0 + 5 logΔ + 20.0 log r

---------------------------------------------------------------------

軌道要素はM.P.E.C. 2009-U41に掲載されたものです。
光度グラフはComet for Windowsで作成したものです。

---------------------------------------------------------------------

Copyright(C) Seiichi Yoshida (comet@aerith.net). All rights reserved.